EHI
4 4 2 1 0 0 0 1 1 1 0 0 0 0 0 0 0 0 0 0 0 0 0 0 0 0 0 0 0 0 0 0 0 0 0 0 0 0 0 0 0 0 0
4 5 4 2 1 0 0 0 0 0 0 0 0 0 0 0 0 0 0 0 0 0 0 0 0 0 0 0 0 0 0 0 0 0 0 0 0 0 0 0 0 0 0
4 5 5 4 2 1 0 0 0 0 1 1 0 0 0 0 0 0 0 0 0 0 0 0 0 0 0 0 0 0 0 0 0 0 0 0 0 0 0 0 0 0 0
4 4 5 5 4 3 1 0 0 1 2 2 1 0 0 0 0 0 0 0 0 0 0 0 0 0 0 0 0 0 0 0 0 0 0 0 0 0 0 0 0 0 0
3 3 4 5 6 5 3 1 1 1 3 3 1 0 0 0 0 0 0 0 0 0 0 0 0 0 0 0 0 0 0 0 0 0 0 0 0 0 0 0 0 0 0
3 3 4 6 7 7 5 3 2 3 3 3 2 1 1 0 0 0 0 0 0 0 0 0 0 0 0 0 0 0 0 0 0 0 0 0 0 0 0 0 0 0 0
3 4 6 8 10 9 6 4 3 3 3 3 3 2 1 0 0 1 1 1 0 0 0 0 0 0 0 0 0 0 0 0 0 0 0 0 0 0 0 0 0 0 0
3 5 8 10 11 9 6 5 4 3 3 3 3 3 2 0 0 1 2 1 0 0 0 0 0 0 0 0 0 0 0 0 0 0 0 0 0 0 0 0 0 0 0
5 7 10 11 10 7 6 5 4 4 3 2 3 3 2 0 0 1 2 1 0 0 0 0 0 0 0 0 0 0 0 0 0 0 0 0 0 0 0 0 0 0 0
8 10 12 11 9 6 4 4 4 3 3 3 2 2 1 0 0 1 1 1 0 0 0 0 0 0 0 0 0 0 0 0 0 0 0 0 0 0 0 0 0 0 0
7 10 11 10 8 5 3 3 3 3 3 2 1 1 0 0 1 1 1 0 0 0 0 0 0 0 0 0 0 0 0 0 0 0 0 0 0 0 0 0 0 0 0
7 9 10 8 7 4 4 3 3 3 3 2 1 0 0 1 2 2 1 0 0 0 0 0 0 0 0 0 0 0 0 0 0 0 0 0 0 0 0 0 0 0 0
9 10 9 6 4 4 4 3 2 2 2 2 2 1 0 2 3 2 1 0 0 0 0 0 0 0 0 0 0 0 0 0 0 0 0 0 0 0 0 0 0 0 0
8 9 8 5 4 3 3 1 1 2 2 2 1 0 0 1 2 1 0 0 0 0 0 0 0 0 0 0 0 0 0 0 0 0 0 0 0 0 0 0 0 0 0
6 7 6 5 4 3 1 0 1 2 2 1 1 1 1 1 1 0 0 0 0 0 0 0 0 0 0 0 0 0 0 0 0 0 0 0 0 0 0 0 0 0 0
4 5 4 3 3 2 1 0 0 1 1 1 1 2 1 1 0 0 0 0 0 0 0 0 0 0 0 0 0 0 0 0 0 0 0 0 0 0 0 0 0 0 0
2 3 3 2 2 1 0 0 0 0 0 0 1 1 1 0 0 0 0 0 0 0 0 0 0 0 0 0 0 0 0 0 0 0 0 0 0 0 0 0 0 0 0
1 2 2 2 1 0 0 0 0 0 0 0 0 0 0 0 0 0 0 0 0 0 0 0 0 0 0 0 0 0 0 0 0 0 0 0 0 0 0 0 0 0 0
1 2 2 2 1 0 0 0 0 0 0 0 0 0 0 0 0 0 0 0 0 0 0 0 0 0 0 0 0 0 0 0 0 0 0 0 0 0 0 0 0 0 0
1 2 3 2 0 0 0 0 0 0 0 0 0 0 0 0 0 0 0 0 0 0 0 0 0 0 0 0 0 0 0 0 0 0 0 0 0 0 0 0 0 0 0
1 2 3 2 1 0 0 0 0 0 0 0 0 0 0 0 0 0 0 0 0 0 0 0 0 0 0 0 0 0 0 0 0 0 0 0 0 0 0 0 0 0 0
1 2 3 2 1 0 0 0 0 1 1 1 1 1 1 0 0 0 0 0 0 0 0 0 0 0 0 0 0 0 0 0 0 0 0 0 0 0 0 0 0 0 0
1 2 3 2 1 0 0 0 1 2 2 2 2 2 2 1 1 1 0 0 0 0 0 0 0 0 0 0 0 0 0 0 0 0 0 0 0 0 0 0 0 0 0
0 1 3 2 1 0 0 0 1 2 3 3 3 3 2 2 2 1 0 0 0 0 0 0 0 0 0 0 0 0 0 0 0 0 0 0 0 0 0 0 0 0 0
0 1 2 2 1 0 0 0 0 1 2 3 3 2 1 1 1 1 0 0 0 0 0 0 0 0 0 0 0 0 0 0 0 0 0 0 0 0 0 0 0 0 0
0 0 1 2 2 1 0 0 0 0 1 3 3 1 0 0 0 0 0 0 0 0 0 0 0 0 0 0 0 0 0 0 0 0 0 0 0 0 0 0 0 0 0
Wind_Speed
8 7 7 7 7 6 7 6 5 4 3 2 2 2 2 2 2 2 3 3 4 5 4 3 3 3 3 3 4 3 3 2 2 2 2 2 2 2 1 2 2 2 2
10 8 7 6 7 6 6 6 5 4 4 2 2 2 2 2 2 2 3 3 4 4 4 3 3 3 3 4 3 3 3 3 2 2 2 2 3 3 2 1 1 2 1
11 10 9 8 7 6 6 6 6 6 5 4 3 2 2 1 2 2 2 3 3 4 4 4 3 3 3 2 3 3 3 3 3 3 2 2 1 2 3 3 2 2 2
10 9 9 8 8 7 6 7 6 6 5 5 3 3 2 2 2 2 1 2 3 3 3 3 3 3 3 3 3 4 3 3 3 3 3 2 1 1 2 3 2 2 3
10 10 9 8 8 6 5 6 6 5 5 5 3 2 2 2 2 2 2 2 2 2 3 3 3 3 2 2 3 3 3 2 2 2 2 2 2 2 2 1 3 2 2
10 10 9 8 8 7 5 5 5 5 4 4 4 4 3 3 3 2 1 2 1 1 2 2 2 3 3 3 2 2 3 2 3 2 2 2 2 2 2 1 1 1 1
10 10 10 9 8 8 7 6 6 5 4 4 4 4 3 3 3 2 1 1 2 1 2 2 2 2 3 3 3 3 2 2 3 3 2 2 2 1 1 1 1 1 1
10 10 10 10 9 9 8 7 7 6 4 3 3 4 3 2 2 2 2 1 2 2 1 2 3 3 3 3 4 3 3 3 3 4 3 2 2 2 2 1 1 2 2
10 10 10 10 9 9 8 7 8 7 5 4 3 3 3 2 2 1 2 2 2 2 2 3 3 3 4 4 4 3 3 3 4 3 4 3 2 3 2 2 1 1 1
10 10 9 10 9 9 8 7 7 7 5 4 4 3 3 2 2 3 3 2 3 3 3 3 4 4 3 4 4 3 3 4 3 2 3 3 3 3 3 2 2 1 1
11 10 9 8 8 8 8 7 7 6 5 4 4 4 3 2 3 3 3 3 2 2 3 3 4 3 3 3 3 3 4 4 4 4 4 4 4 3 3 3 3 2 2
10 10 10 9 8 8 8 8 7 6 5 4 4 4 4 3 4 3 3 3 3 3 3 4 4 4 4 4 3 4 4 4 4 4 5 5 4 5 4 3 3 3 2
10 10 10 9 9 8 8 7 7 7 6 5 4 4 3 3 4 4 3 3 4 3 3 4 4 4 4 4 4 3 3 4 4 4 5 5 5 5 4 4 4 3 3
10 10 9 9 9 8 8 7 7 7 7 5 5 4 4 4 4 4 3 3 3 3 4 4 5 4 5 5 5 4 4 4 4 4 5 5 5 5 5 4 4 4 4
11 11 10 9 9 9 8 7 7 7 7 6 5 5 5 5 5 4 3 4 3 4 4 5 5 5 5 6 6 4 4 4 3 4 4 5 6 7 5 4 4 4 3
12 12 11 10 10 9 9 8 7 7 7 7 5 5 6 5 5 4 4 4 3 4 4 5 5 5 5 7 9 7 4 3 3 3 3 3 4 5 6 6 6 4 3
10 11 11 11 10 10 10 9 8 8 8 7 6 6 6 5 5 5 4 4 3 4 4 4 4 4 4 7 8 9 4 3 3 3 3 4 5 5 4 5 5 4 4
10 9 9 9 9 9 9 9 8 8 8 7 7 6 6 6 5 5 4 3 3 3 3 3 4 4 3 5 6 7 3 2 2 3 3 3 4 6 6 4 4 4 3
9 8 8 9 9 10 10 9 9 8 8 7 7 7 7 6 5 5 4 3 3 3 3 3 3 3 2 3 4 5 2 2 2 2 3 3 3 6 9 5 5 5 5
7 8 8 8 9 9 10 10 9 8 8 8 7 7 7 7 6 5 4 3 3 3 3 2 3 3 3 2 2 3 1 2 2 2 2 4 4 5 6 3 4 5 5
7 7 8 7 8 9 10 9 9 8 7 7 7 7 6 6 6 5 4 4 3 3 2 2 2 2 3 4 2 2 1 1 2 2 1 1 3 4 5 5 3 5 6
7 7 7 7 7 8 9 9 8 7 7 7 7 7 6 6 6 5 4 4 4 3 3 2 2 1 2 3 2 2 0 2 2 2 1 1 4 5 6 5 6 8 8
7 6 7 7 6 7 8 9 8 8 8 8 7 6 6 5 5 5 4 3 3 2 2 2 1 1 1 1 2 1 2 3 1 1 3 5 6 6 5 6 8 6 3
7 6 7 7 6 6 6 7 8 8 8 8 7 6 6 6 5 4 3 3 3 2 2 2 1 1 1 1 1 0 1 2 2 2 4 7 7 5 6 6 4 3 3
6 6 7 7 6 7 7 7 8 8 8 7 6 6 5 5 5 4 2 3 2 4 4 2 2 2 1 1 2 1 1 1 2 3 2 2 2 2 3 3 3 3 3
6 6 7 7 7 7 7 7 7 7 7 6 6 5 4 4 4 4 3 2 3 4 5 4 4 2 3 3 2 1 2 3 4 3 2 3 3 3 3 3 3 3 3
Wind_Direction
150 141 143 141 134 130 128 130 133 129 118 107 103 97 89 70 59 66 52 38 35 31 32 31 37 41 40 30 31 20 8 357 6 17 1 7 41 61 56 37 44 48 47
154 148 149 145 141 135 133 134 132 128 113 102 104 105 96 94 78 54 48 38 43 29 26 32 38 50 48 34 28 29 10 358 20 32 14 14 14 3 36 48 67 62 24
159 157 157 152 146 147 148 143 142 133 125 118 95 93 80 72 80 69 46 37 46 39 27 28 34 38 51 38 32 37 32 1 1 29 50 65 24 338 352 13 49 57 39
159 156 155 156 154 153 152 147 144 136 136 134 126 131 123 102 96 98 91 63 56 49 31 28 29 36 51 43 26 38 23 27 10 3 18 50 102 93 352 348 10 44 53
163 161 158 156 152 147 143 143 138 134 133 127 131 125 102 104 95 98 93 84 71 62 51 29 29 34 52 63 52 44 36 28 28 14 8 10 13 27 76 348 346 9 30
164 162 156 150 144 140 139 135 133 126 129 139 142 118 108 106 100 96 96 99 93 65 60 46 41 34 33 41 44 53 56 38 25 22 28 33 31 17 38 28 356 357 349
167 162 156 152 148 149 150 147 137 138 149 153 142 135 137 136 125 128 121 109 107 77 58 51 55 42 28 35 29 36 39 49 43 38 28 26 25 27 41 43 351 344 321
164 160 156 152 153 154 157 154 150 148 155 156 143 138 142 130 119 131 124 96 103 102 84 70 66 50 31 38 30 22 26 36 36 33 30 22 19 27 43 50 34 5 353
157 157 156 154 155 157 159 156 150 151 160 153 142 131 122 107 109 102 91 81 81 87 82 80 76 60 41 39 33 33 23 32 39 25 22 18 14 21 25 31 58 74 20
159 157 157 158 158 157 158 155 153 153 156 159 154 129 116 111 91 74 73 71 78 70 73 71 73 63 53 47 37 33 24 34 37 29 32 26 16 13 12 17 13 37 94
160 158 157 157 152 150 152 154 155 153 156 157 136 130 127 120 107 87 87 83 81 90 89 72 73 66 57 53 48 38 36 33 27 27 39 32 26 17 10 10 12 18 42
155 155 155 155 154 157 159 161 162 156 154 147 138 131 130 132 120 110 104 102 89 74 85 83 74 64 55 51 47 43 42 40 33 27 36 32 27 19 9 16 18 12 13
153 154 156 160 159 160 160 161 156 150 145 141 139 139 140 121 109 103 92 86 91 82 77 79 75 65 56 46 39 44 46 46 42 40 43 37 30 19 12 15 14 4 4
154 153 156 158 157 158 158 158 152 149 146 146 150 143 134 125 113 99 91 79 79 81 75 72 70 65 59 43 28 27 43 45 45 56 60 51 43 31 13 13 8 5 5
158 160 163 161 158 158 158 155 152 152 150 150 150 147 134 122 114 110 105 90 74 77 80 76 69 59 57 39 29 15 28 38 42 55 71 70 61 46 32 21 6 5 6
162 164 167 160 162 162 159 155 157 157 150 147 142 126 120 114 114 117 109 97 83 75 82 85 80 64 54 44 35 19 14 19 35 38 54 81 62 41 28 12 6 10 17
161 165 168 164 167 167 162 159 160 151 147 146 138 132 128 127 130 128 112 112 105 89 86 88 90 83 61 45 28 11 5 15 23 32 34 32 43 34 7 353 346 344 336
161 165 164 159 160 158 155 152 148 148 148 145 140 140 136 136 133 127 127 128 119 112 109 107 106 99 71 46 23 1 1 14 21 37 37 46 41 19 11 357 354 344 336
159 159 161 158 158 155 154 152 151 150 149 147 147 147 144 141 140 139 140 133 125 123 125 126 120 114 97 54 27 7 356 8 12 39 45 48 54 22 15 9 348 338 334
147 153 157 159 156 153 152 152 153 152 155 154 152 149 146 146 148 147 142 136 132 139 144 140 136 135 134 120 56 23 356 352 350 16 44 39 37 17 9 1 341 330 323
141 143 149 151 153 150 149 153 154 158 155 146 143 143 143 146 144 141 141 141 138 139 145 141 138 144 145 147 134 93 17 339 344 353 3 7 3 349 338 331 311 304 308
134 139 139 140 144 148 150 151 156 151 142 141 143 144 146 149 147 140 144 146 146 152 159 150 152 161 143 146 169 162 263 331 337 326 338 337 330 323 316 311 302 305 311
137 138 139 139 143 147 150 152 147 140 139 141 144 146 147 146 145 146 150 146 144 149 155 147 157 152 120 138 148 168 300 304 302 304 312 316 309 308 300 293 300 305 299
142 139 139 144 148 147 141 139 137 139 142 148 152 154 153 149 144 144 150 148 155 160 162 166 177 174 148 135 138 229 285 306 303 303 301 302 295 289 289 297 294 280 271
141 145 150 150 149 143 139 140 144 147 152 155 157 156 152 150 145 138 143 156 164 171 170 176 169 163 176 185 162 180 253 278 283 303 289 286 291 293 293 292 288 288 295
147 149 145 148 151 149 148 148 150 154 157 158 159 155 152 148 147 147 134 103 156 151 147 153 159 158 172 179 180 211 271 292 302 312 289 288 290 292 296 299 302 302 304